Location: Knowlton
(51.2333°N, 1.2667°E)
Time: 19:18:50
(UTC+00:00)

CUBESAT XI-V - Visible Passes

Search period start: 07 December 2021 00:00
Search period end: 17 December 2021 00:00
Orbit: 668 x 692 km, 98.1° (Epoch: 07 December)

Date Brightness Start Highest point End Pass type
(mag) Time Alt. Az. Time Alt. Az. Time Alt. Az.
09 Dec ? 16:37:50 10° NNW 16:40:07 14° NW 16:42:23 10° W visible
12 Dec ? 16:48:42 10° NNW 16:50:13 11° NW 16:51:45 10° WNW visible
14 Dec ? 16:21:56 10° NNW 16:25:00 18° WNW 16:28:04 10° W visible
